Location: Boursonne
(49.2024°N, 3.0468°E)
Time: 03:51:23
(UTC+00:00)

ERBS - Pass Details

Date: 03 March 2021
Orbit: 407 x 412 km, 57.0° (Epoch: 17 April)

Event Time Altitude Azimuth Distance (km) Brightness Sun altitude
Rises 18:54:35 0° 257° (WSW) 2,352 7.5 -13.9°
Reaches altitude 10° 18:56:45 10° 265° (W) 1,490 6.4 -14.2°
Maximum altitude 18:59:54 38° 336° (NNW) 649 3.4 -14.7°
Enters shadow 19:02:09 17° 39° (NE) 1,159 4.2 -15.1°
